Zurück zum Katalog

FENGYUN 1C DEB

AktivSSO
NORAD 30411·DEBRIS·🇨🇳 China

Gestartet May 10, 1999 von Taiyuan Satellite Launch Center

Loading…

Nächste Überflüge (nächste 24 Stunden)

TLE

AktuellSource: Space-Track

Epoche: Sep 14, 2026, 04:20 UTC

1 30411U 99025AEA 26257.18121086  .00001861  00000-0  10181-2 0  9992
2 30411  98.5692 159.4697 0124212  45.2542 315.8658 14.09231257998618

Verfolge FENGYUN 1C DEB in Echtzeit mit AllMySat

Download on the App Store